Orbital Elements at Epoch 2459000.5 (2020-May-31.0) TDB
Reference: JPL 21 (heliocentric ecliptic J2000)
Element | Value | Uncertainty (1-sigma) | Units |
e | .1108927966209514 | 5.931e-08 | |
a | 2.606401363862059 | 1.8064e-08 | au |
q | 2.317370227506733 | 1.5914e-07 | au |
i | 10.86875153333327 | 4.0806e-06 | deg |
node | 260.4566718365803 | 3.358e-05 | deg |
peri | 258.3852415620885 | 4.5442e-05 | deg |
M | 15.3077028236035 | 2.578e-05 | deg |
tp | 2458935.146644651317 (2020-Mar-26.64664465) | 0.0001102 | TDB |
period | 1536.952225728373 4.21 | 1.5978e-05 4.375e-08 | d yr |
n | .2342297919048157 | 2.435e-09 | deg/d |
Q | 2.895432500217384 | 2.0067e-08 | au |
|
| | Orbit Determination Parameters
Additional Information
|